User: anonymous   Login
Location: Unspecified
(0.0000°N, 0.0000°E)
Time: 09:15:55
(UTC+00:00)
Language:

FIREBIRD 4 - Orbit

View from above orbital plane
View from above orbital plane
View from above satellite
View from above satellite

Ground track
Ground track

The orbit data is extracted from the following two-line orbital elements,

1 40378U 15003C   17086.90369219 +.00004269 +00000-0 +18637-3 0  9991
2 40378 099.1170 254.7353 0137001 271.4829 087.0709 15.14793496118690
Epoch (UTC): 27 March 2017 21:41:19
Eccentricity: 0.0137001
inclination: 99.1170°
perigee height: 427 km
apogee height: 616 km
right ascension of ascending node: 254.7353°
argument of perigee: 271.4829°
revolutions per day: 15.14793496
mean anomaly at epoch: 87.0709°
orbit number at epoch: 11869

The dashed part of the orbit path shows where the satellite is in the earth's shadow,  

DLR